Location: ????????
(54.6123°N, 39.2099°E)
Time: 06:25:14
(UTC+00:00)

Cosmos 1805 - Pass Details

Date: 19 May 2025
Orbit: 448 x 452 km, 82.5° (Epoch: 23 June)

Event Time Altitude Azimuth Distance (km) Brightness Sun altitude
Rises 19:11:20 0° 349° (N) 2,472 8.2 -10.5°
Reaches altitude 10° 19:13:26 10° 352° (N) 1,594 6.9 -10.7°
Maximum altitude 19:16:53 72° 76° (ENE) 478 2.9 -10.9°
Enters shadow 19:19:24 17° 161° (SSE) 1,199 4.4 -11.1°
